SCP
0 0 0 0 0 0 0 0 0 0 -0 -0 -0 -0 -0 0 0 0 0 0 0 0 0 0 0 0 0 0 0 0 0 0 0 0 0 0 0 0 0 0 0 0 0 0 0 0 0 0 0
0 0 0 0 0 0 0 0 0 0 -0 -0 -0 -0 -0 -0 0 0 0 0 0 0 0 0 0 0 0 0 0 0 0 0 0 0 0 0 0 0 0 0 0 0 0 0 0 0 0 0 0
0 0 0 0 0 0 0 -0 0 0 -0 -0 -0 -0 -0 0 0 0 0 0 0 0 0 0 0 0 0 0 0 0 0 0 0 0 0 0 0 0 0 0 0 0 0 0 0 0 0 0 0
0 0 0 0 0 0 0 -0 0 0 0 0 0 0 0 0 0 0 0 0 0 0 0 0 0 0 0 0 0 0 0 0 0 0 0 0 0 0 0 0 0 0 0 0 0 0 0 0 0
0 0 0 0 0 0 -0 -0 0 0 0 0 0 0 0 0 0 0 0 0 0 0 0 0 0 0 0 0 0 0 0 0 0 0 0 0 0 0 0 0 0 0 0 0 0 0 0 0 0
0 0 0 0 0 0 0 0 0 0 0 0 0 0 0 0 0 0 0 0 0 0 0 0 0 0 0 0 0 0 0 0 0 0 0 0 0 0 0 0 0 0 0 0 0 0 0 0 0
0 0 0 0 0 0 0 0 0 0 0 0 0 0 0 0 0 0 0 0 0 0 0 0 0 0 0 0 0 0 0 0 0 0 0 0 0 0 0 0 0 0 0 0 0 0 0 0 0
0 0 0 0 0 0 0 -0 0 0 0 0 0 0 0 0 0 0 0 0 0 0 0 0 0 0 0 0 0 0 0 0 0 0 0 0 0 0 0 0 0 0 0 0 0 0 0 0 0
0 0 0 0 0 0 0 -0 0 0 0 0 0 0 0 0 0 0 0 0 0 0 0 0 0 0 0 0 0 0 0 0 0 0 0 0 0 0 0 0 0 0 0 0 0 0 0 0 0
0 0 0 0 0 0 0 0 0 0 0 0 0 0 1 1 1 1 0 0 0 0 0 0 0 0 0 0 0 0 0 0 0 0 0 0 0 0 0 0 0 0 0 0 0 0 0 0 0
0 0 0 0 0 0 0 0 0 0 0 0 0 1 1 1 1 1 0 0 0 0 0 0 0 0 0 0 0 0 0 0 0 0 0 0 0 0 0 0 0 0 0 0 0 0 0 0 0
0 0 0 0 0 0 0 0 0 0 0 0 0 1 1 1 1 1 0 0 0 0 0 0 0 0 0 0 0 0 0 0 0 0 0 0 0 0 0 0 0 0 0 0 0 0 0 0 0
0 0 0 0 0 0 0 0 0 0 0 0 1 1 2 1 1 1 0 0 0 0 0 0 0 0 0 0 0 0 0 0 0 0 0 0 0 0 0 0 0 0 0 0 0 0 0 0 0
0 0 0 0 0 0 0 0 0 0 0 0 1 1 1 1 1 1 1 0 0 0 0 0 0 0 0 0 0 0 0 0 0 0 0 0 0 0 0 0 0 0 0 0 0 0 0 0 0
0 0 0 0 0 0 0 0 0 0 0 0 1 1 1 1 1 1 1 1 0 0 0 0 0 0 0 0 0 0 0 0 0 0 0 0 0 0 0 0 0 0 0 0 0 0 0 0 0
0 0 0 0 0 0 0 0 0 0 0 0 0 1 1 1 1 1 1 1 1 0 0 0 0 0 0 0 0 0 0 0 0 0 0 0 0 0 0 0 0 0 0 0 0 0 0 0 0
0 0 0 0 0 0 0 0 0 0 0 0 0 0 1 1 1 1 1 1 1 1 0 0 0 0 0 0 0 0 0 0 0 0 0 0 0 0 0 0 0 0 0 0 0 0 0 0 0
0 0 0 0 0 0 0 0 0 0 0 0 0 0 0 0 1 1 1 1 1 1 1 1 1 1 1 1 1 1 0 0 0 0 0 0 0 0 0 0 0 0 0 0 0 0 0 0 0
0 0 0 0 0 0 0 0 0 0 0 0 1 1 1 1 0 1 1 1 1 1 1 1 1 1 1 1 1 1 1 0 0 0 0 0 0 0 0 0 0 0 0 0 0 0 0 0 0
0 0 0 0 0 0 0 0 0 0 1 1 1 1 1 1 1 1 1 1 1 1 1 1 1 1 1 1 1 1 1 0 0 0 0 0 0 0 0 0 0 0 0 0 0 0 0 0 0
0 0 0 0 0 0 0 0 0 1 1 1 1 1 1 1 1 1 1 1 1 1 1 1 1 1 1 1 1 1 1 0 0 0 0 0 0 0 0 0 0 0 0 0 0 0 0 0 0
0 0 0 0 0 0 0 0 0 0 1 1 1 1 1 1 1 1 1 1 1 1 1 1 1 1 1 1 1 1 1 0 0 0 0 0 0 0 0 0 0 0 0 0 0 0 0 0 0
0 0 0 0 0 0 0 0 0 0 0 0 0 0 0 0 0 1 1 1 1 1 1 1 1 1 1 1 1 1 1 0 0 0 0 0 0 0 0 0 0 0 0 0 0 0 0 0 0
0 0 0 0 0 0 0 0 0 0 0 0 0 0 0 0 0 0 1 1 1 1 1 1 1 1 1 1 1 0 0 0 0 0 0 0 0 0 0 0 0 0 0 0 0 0 0 0 0
0 0 0 0 0 0 0 0 0 0 0 0 0 0 0 0 0 0 0 0 0 1 1 1 1 0 0 0 0 0 0 0 0 0 0 0 0 0 0 0 0 0 0 0 0 0 0 0 0
0 0 0 0 0 0 0 0 0 0 0 0 0 0 0 0 0 0 0 0 0 0 0 0 0 0 0 0 0 0 0 0 0 0 0 0 0 0 0 0 0 0 0 0 0 0 0 0 0
0 0 0 0 0 0 0 0 0 0 0 0 0 0 0 0 0 0 0 0 0 0 0 0 0 0 0 0 0 0 0 0 0 0 0 0 0 0 0 0 0 0 0 0 0 0 0 0 0
0 0 0 0 0 0 0 0 0 0 0 0 0 0 0 0 0 0 0 0 0 0 0 0 0 0 0 0 0 0 0 0 0 0 0 0 0 0 0 0 0 0 0 0 0 0 0 0 0
0 0 0 0 0 0 0 0 0 0 0 0 0 0 0 0 0 0 0 0 0 0 0 0 0 0 0 0 0 0 0 0 0 0 0 0 0 0 0 0 0 0 0 0 0 0 0 0 0
0 0 0 0 0 0 0 0 0 0 0 0 0 0 0 0 0 0 0 0 0 0 0 0 0 0 0 0 0 0 0 0 0 0 0 0 0 0 0 0 0 0 0 0 0 0 0 0 0
Wind_Speed
7 2 2 3 6 5 2 4 2 2 2 2 2 3 4 4 5 4 1 11 15 15 13 16 18 18 17 17 18 18 18 18 18 18 17 17 16 15 15 15 14 14 14 14 14 14 14 14 13
3 0 4 5 5 1 5 4 3 3 2 1 1 1 2 3 1 4 5 9 15 15 12 13 18 18 18 18 18 18 19 19 18 17 17 17 16 15 14 14 14 13 13 13 13 13 13 12 12
2 2 5 5 3 5 5 3 3 5 4 2 2 1 1 2 4 6 6 12 14 13 11 14 19 18 18 18 17 17 18 18 18 17 16 16 15 14 13 13 13 13 12 12 12 12 11 11 10
2 5 6 4 5 7 6 3 2 5 5 2 2 1 0 1 5 6 12 15 15 12 11 13 19 18 18 18 17 17 17 17 16 16 15 14 14 13 12 12 12 12 11 11 11 10 10 9 9
4 5 3 1 7 6 5 4 2 3 4 3 3 2 0 3 7 13 15 15 15 12 9 12 16 17 17 18 17 16 16 15 15 14 14 13 12 11 11 11 11 10 10 9 9 8 8 7 7
5 5 4 6 8 6 4 3 2 4 4 3 2 2 0 3 8 12 13 12 12 12 10 10 16 18 17 17 17 15 15 14 13 13 13 12 11 10 10 10 9 9 8 8 7 7 6 6 5
5 5 6 7 6 6 5 3 3 3 4 5 4 4 1 4 5 10 11 10 10 11 10 9 10 13 16 16 15 15 14 13 13 12 12 11 11 10 10 9 8 8 7 6 6 5 4 4 3
5 5 5 5 6 6 3 2 2 3 5 3 5 6 5 6 9 9 10 9 10 10 10 8 7 7 8 10 15 16 15 14 13 13 13 12 11 10 10 8 7 7 6 5 4 3 3 2 2
4 4 5 6 7 5 2 2 3 2 3 2 3 4 5 16 15 12 11 9 10 11 9 8 7 7 7 7 11 13 15 14 13 11 13 10 5 4 5 6 7 6 5 4 3 2 1 1 1
4 4 8 6 5 4 2 3 3 3 3 3 1 3 13 18 16 15 15 14 14 14 13 9 9 8 8 8 6 5 6 6 6 5 6 4 4 3 4 4 6 6 5 3 2 2 0 1 1
5 7 6 6 6 4 4 5 2 2 5 6 6 9 17 18 15 14 14 14 14 13 13 12 10 9 8 5 5 4 3 4 5 6 5 4 3 2 2 1 1 1 1 0 1 2 1 1 0
4 6 5 5 4 3 4 4 3 6 9 7 6 14 19 19 18 17 16 13 10 11 12 12 12 10 8 5 5 5 4 4 4 5 6 5 3 3 2 1 1 1 1 1 1 0 0 0 1
5 5 5 7 6 5 4 6 5 8 11 6 5 13 18 18 15 12 10 10 10 12 12 12 12 10 8 6 5 6 5 5 4 4 5 5 4 4 3 2 2 2 1 1 1 1 0 0 0
5 5 6 6 6 4 6 6 3 10 6 4 9 13 15 16 15 11 11 12 13 13 12 11 11 10 8 7 6 5 5 4 4 4 5 6 4 4 3 2 2 2 2 2 2 2 1 0 1
3 3 6 5 4 4 3 4 6 7 2 5 8 10 12 11 11 13 13 12 12 12 11 11 11 9 9 8 7 5 5 5 4 4 4 5 5 4 4 3 3 2 2 2 1 1 1 1 1
2 1 3 6 2 2 4 5 7 2 4 5 6 8 9 9 10 9 9 9 9 10 11 11 11 10 9 8 7 5 5 5 4 3 3 5 5 5 4 3 3 2 2 2 2 2 2 2 1
4 1 2 6 3 1 2 4 7 3 3 4 5 6 7 6 6 6 8 8 9 10 11 11 10 11 10 7 5 5 4 4 3 3 3 3 4 5 4 4 3 3 3 2 2 2 2 2 1
2 1 2 5 4 3 1 3 7 5 1 2 2 2 3 5 7 5 5 6 7 8 9 10 9 9 8 6 4 3 4 3 3 3 2 3 3 4 4 3 3 4 3 3 3 3 3 2 1
2 1 4 6 4 1 1 3 6 7 6 5 4 3 1 2 2 0 2 4 6 7 8 9 8 8 8 6 6 5 3 3 3 3 3 3 2 3 3 3 3 3 3 3 4 3 3 2 1
3 3 4 6 2 1 1 4 6 9 8 7 7 6 4 5 6 5 3 2 4 6 6 7 8 8 8 7 5 4 4 3 3 4 5 4 3 3 3 3 3 3 3 4 3 3 3 2 2
4 4 5 5 5 3 2 4 6 7 9 11 11 10 9 8 7 6 5 4 3 3 4 5 6 6 7 7 6 6 5 4 3 4 4 4 5 5 5 5 4 4 3 3 3 3 4 3 2
5 7 6 4 1 3 2 1 3 4 9 11 12 11 11 11 9 9 8 7 6 5 4 5 6 6 6 7 7 8 6 4 3 4 5 5 6 6 6 7 6 6 5 5 4 4 3 3 2
8 4 3 3 3 1 2 4 2 2 6 9 10 11 11 11 11 10 10 9 8 7 6 6 7 7 6 6 6 7 6 6 6 6 8 7 7 8 8 8 7 7 6 7 7 7 6 4 3
4 3 4 4 4 0 2 4 1 2 2 5 8 10 11 11 12 12 12 11 11 10 9 8 9 9 7 8 8 8 10 9 9 8 7 6 6 7 10 10 9 8 7 8 8 8 9 7 7
4 5 4 4 3 2 1 5 3 4 5 7 8 9 10 11 11 12 13 13 12 12 11 11 12 11 10 12 11 11 11 11 10 9 8 8 6 7 9 9 9 8 8 8 8 9 9 8 8
3 7 7 5 4 1 3 4 4 7 8 9 8 8 10 11 11 13 13 13 12 13 12 12 13 13 12 13 12 11 11 9 9 10 9 9 8 8 9 10 10 10 10 9 8 8 7 7 7
4 3 5 6 3 3 2 4 5 7 8 8 8 9 10 10 12 12 13 13 13 13 13 13 14 14 14 14 14 14 13 12 12 11 11 9 8 9 10 11 11 10 10 9 8 7 7 6 6
3 5 5 6 5 2 1 2 3 6 7 7 7 7 8 10 11 12 12 13 13 13 13 14 15 15 14 14 13 13 13 13 12 12 12 11 10 10 10 11 10 10 10 9 8 7 6 7 5
4 4 5 4 4 6 3 1 1 5 8 8 7 7 8 10 10 10 11 12 13 13 14 14 14 14 14 14 13 14 13 12 12 12 12 10 10 10 10 10 10 10 9 8 8 7 7 6 5
3 3 3 4 2 3 5 1 3 6 9 10 9 9 9 10 10 10 11 12 12 13 13 13 13 14 13 13 13 14 12 12 12 12 11 10 10 9 9 9 9 9 8 7 7 7 6 6 5
Wind_Direction
312 320 104 63 48 43 290 270 261 302 293 258 185 169 178 183 187 218 111 137 133 142 151 154 152 149 144 137 132 129 127 126 125 126 126 126 126 126 126 126 124 122 121 118 117 115 114 114 114
300 351 62 58 79 19 275 253 266 268 249 216 183 172 191 226 133 121 130 141 139 142 147 154 154 151 146 140 136 134 133 132 130 129 129 129 129 128 128 128 126 124 122 121 120 118 117 117 117
303 59 85 78 130 195 236 224 236 287 274 207 203 203 194 215 153 157 153 141 136 141 146 157 156 152 148 143 140 138 137 136 135 134 134 133 132 131 131 130 128 126 125 124 123 121 120 120 118
69 53 60 97 223 226 225 244 273 315 312 256 179 208 135 23 155 149 140 142 140 144 149 158 157 154 150 146 144 142 141 140 140 139 138 137 136 135 134 132 131 129 128 127 126 124 124 122 119
59 87 94 194 238 247 245 257 265 286 275 252 186 190 275 15 108 132 142 147 146 147 152 158 158 156 153 151 149 147 145 144 144 143 142 140 139 138 138 137 137 136 134 133 130 128 124 118 114
59 82 135 216 242 255 262 246 258 257 261 271 179 166 327 103 129 143 145 145 147 149 149 155 161 160 158 155 154 152 149 148 148 147 145 144 143 143 143 144 144 142 141 139 136 132 125 115 106
117 129 182 205 236 257 255 239 232 249 272 254 176 155 157 143 147 142 136 133 138 148 151 155 163 165 164 160 157 155 154 153 152 151 150 150 151 152 153 152 152 150 149 149 147 141 129 116 103
130 126 181 204 215 247 249 264 245 223 259 246 151 171 197 170 143 129 122 128 140 151 157 157 158 157 158 161 163 161 160 159 159 159 160 160 162 163 164 159 161 162 164 165 162 156 139 122 104
91 96 200 208 199 234 246 272 281 265 260 270 194 199 174 140 140 134 134 141 155 164 167 164 159 155 153 158 170 167 167 167 165 166 168 163 156 158 163 169 176 179 183 186 185 187 168 114 52
105 164 221 219 205 218 268 265 280 314 304 289 339 91 132 143 152 156 161 167 171 174 177 175 168 163 160 168 162 159 162 161 158 156 159 146 142 155 160 182 194 198 201 210 216 230 312 65 39
165 195 225 238 232 235 268 274 245 236 267 239 216 163 152 157 164 172 176 178 179 175 177 180 177 170 169 163 155 154 148 150 153 155 149 142 139 140 137 130 205 225 217 61 22 26 46 58 315
185 237 228 246 227 219 233 258 262 220 238 246 207 165 162 169 177 182 183 181 175 175 181 180 180 176 173 160 159 157 156 161 163 160 154 149 148 150 148 154 164 152 113 123 95 103 26 317 273
213 254 245 242 257 243 240 241 250 260 256 257 179 161 172 178 183 185 181 177 175 182 184 182 182 180 172 161 162 165 166 168 165 161 163 160 161 169 169 172 177 183 173 173 177 195 211 292 322
235 243 271 272 255 235 220 252 217 262 262 188 164 172 182 184 180 178 180 183 184 186 185 179 182 180 171 169 167 165 165 160 161 169 173 171 169 171 173 181 189 196 189 187 182 186 179 167 127
280 285 303 273 243 241 187 278 231 249 187 173 179 181 184 185 182 190 190 189 187 185 181 181 183 178 176 173 172 164 163 159 166 172 177 179 176 175 179 185 196 202 184 169 147 134 108 100 81
354 8 312 294 286 257 150 255 277 264 173 191 193 186 187 188 191 196 192 190 186 181 182 184 188 181 181 177 171 161 158 160 165 165 174 186 184 177 178 187 198 181 159 148 144 131 98 79 78
20 16 291 306 326 31 137 258 301 337 176 191 198 193 187 187 196 200 197 193 187 185 181 182 186 179 181 175 165 152 142 150 154 152 162 183 189 183 179 187 186 161 146 142 146 113 112 112 109
245 276 315 296 305 2 349 289 324 353 116 173 173 183 185 195 216 206 194 188 184 183 178 178 179 172 164 152 137 124 117 124 123 129 144 165 185 182 174 176 167 151 143 135 126 114 89 91 99
195 241 282 272 276 331 336 354 0 18 48 52 45 47 55 249 287 340 173 165 169 172 172 174 171 163 158 159 157 152 150 136 121 106 100 111 132 153 156 154 146 145 146 145 134 115 101 74 53
210 261 282 290 307 188 64 42 38 44 52 56 53 42 27 14 12 13 38 108 152 163 168 168 167 163 165 168 156 143 129 117 107 95 78 72 81 96 128 127 124 123 122 122 122 120 116 78 37
231 217 239 266 332 11 94 34 45 53 57 55 50 45 36 34 27 27 38 52 74 110 139 151 150 152 156 145 128 119 106 101 105 94 78 62 72 72 80 92 94 90 95 106 99 110 129 127 72
255 230 217 246 344 303 70 81 13 49 55 50 47 43 37 34 35 35 40 46 52 63 90 108 122 133 138 139 145 147 143 141 119 106 95 73 65 70 71 75 80 81 80 78 75 73 88 115 117
221 232 203 222 181 302 22 119 313 35 57 52 47 45 41 39 38 37 37 42 47 53 68 87 97 90 94 111 131 128 116 111 104 98 94 82 66 64 68 70 72 72 70 70 66 66 66 67 82
207 74 56 49 81 51 273 130 61 32 65 67 53 47 43 43 43 44 42 46 49 52 62 71 82 81 84 91 92 102 109 110 107 99 93 84 75 68 65 69 67 69 70 67 67 70 70 71 73
103 96 43 15 34 249 4 98 87 61 82 84 69 54 48 46 46 47 46 46 47 49 58 68 74 72 73 77 77 86 97 103 104 102 95 89 77 70 67 70 68 65 66 66 64 65 64 64 70
161 141 155 179 192 261 29 99 99 86 87 83 75 66 58 53 51 51 50 51 51 51 53 63 72 73 71 74 74 76 83 89 89 88 90 87 83 78 78 75 72 68 67 67 65 65 64 64 68
133 158 161 128 130 94 91 109 122 110 98 89 77 68 62 59 59 59 57 57 57 57 56 61 70 71 71 75 78 75 75 81 86 86 84 84 82 82 77 77 74 70 68 66 66 65 61 62 61
104 134 96 114 137 147 134 160 166 156 135 111 91 78 69 65 63 63 63 62 62 63 64 64 67 70 69 72 76 80 78 80 82 82 80 79 78 79 77 74 72 69 65 63 62 58 53 57 46
23 54 86 102 136 145 159 231 335 163 144 127 109 93 81 75 71 67 67 66 66 65 65 66 67 70 71 72 75 78 77 78 79 78 78 79 78 77 76 75 72 67 62 58 58 53 46 47 37
79 80 125 138 154 134 134 137 26 113 120 121 114 101 92 88 84 78 74 71 68 68 68 69 71 72 72 74 75 75 75 76 77 77 77 78 77 75 76 76 73 70 63 55 54 46 39 35 26